Location: Astronomy Club of Akron Observatory
(40.9700°N, 81.5606°W)
Time: 09:49:35
(UTC-04:00)

Daily predictions for brighter satellites

Satellite Brightness Start Highest point End
(mag) Time Altitude Azimuth Time Altitude Azimuth Time Altitude Azimuth
ATLAS CENTAUR R/B 3.6 19:27:10 10° S 19:31:35 49° ESE 19:44:15 10° NE
Cosmos 1371 Rocket 4.2 19:34:34 10° NNW 19:39:53 83° WSW 19:45:13 10° SSE
SJ-6B 3.1 19:38:35 10° SSE 19:42:24 48° ENE 19:46:20 10° N
COSMO-SKYMED 1 2.8 19:40:14 10° N 19:44:36 80° WNW 19:48:56 10° SSW
IDEFIX/ARIANE 42P 4.1 19:42:14 10° S 19:47:11 43° W 19:52:10 10° NNW
Cosmos 2333 Rocket 3.6 19:41:46 10° SW 19:47:15 44° WNW 19:52:45 10° NNE
Cosmos 192 4.5 19:46:11 10° S 19:50:59 53° ESE 19:55:50 10° NNE
Timation 1 Rocket 4.4 19:45:27 10° NNW 19:51:23 62° ENE 19:57:16 10° SE
NOAA 12 4.1 19:46:27 10° SSE 19:51:38 62° ENE 19:56:50 10° N
Cosmos 1758 4.2 19:49:35 10° SSE 19:53:08 29° E 19:56:41 10° NNE
HJ-1C 4.2 19:51:36 10° SE 19:54:37 32° ENE 19:57:39 10° N
USA 215 3.4 19:50:35 10° NE 19:56:57 53° SE 20:03:17 10° SSW
Cosmos 1624 Rocket 4.3 19:52:02 10° NNW 19:57:15 72° WSW 20:02:24 10° S
OAO 3 Rocket 4.0 19:54:22 10° WSW 19:58:48 39° S 20:02:48 13° ESE
Aureole 2 Rocket 3.1 19:55:12 10° SSW 19:59:35 82° WNW 20:03:54 10° NNE
ISS -1.2 19:59:07 10° SSE 20:00:15 11° SE 20:00:33 11° ESE
Cosmos 1674 4.4 19:58:20 10° NE 20:00:34 15° ENE 20:01:38 13° E
Cosmos 1484 Rocket 3.8 19:57:25 10° S 20:01:08 49° W 20:04:55 10° NNW
SAR-Lupe-1 4.1 19:58:27 10° SSE 20:02:00 86° WSW 20:05:35 10° NNW
Cosmos 1766 Rocket 3.7 20:00:01 10° N 20:04:17 49° E 20:08:28 10° SSE
CZ-4C R/B 3.8 20:03:02 10° WSW 20:08:01 36° NW 20:13:35 10° NNE
ALOS 3.1 20:04:45 10° SE 20:08:50 31° ENE 20:12:57 10° N
Cosmos 2237 Rocket 4.0 20:05:29 10° WSW 20:10:37 34° WNW 20:15:46 10° N
Cosmos 2034 Rocket 4.1 20:04:38 10° S 20:10:44 57° E 20:16:55 10° NNE
BREEZE-M TANK 4.3 20:00:59 10° WNW 20:11:27 45° SW 20:14:53 10° SSE
Helios 1B rocket 2.5 20:08:12 10° NNE 20:12:13 51° E 20:16:13 10° S
Cosmos 1464 Rocket 3.9 20:06:19 10° S 20:12:34 80° E 20:18:46 10° N
Meteor 1-29 3.4 20:09:27 10° NNE 20:12:47 39° E 20:16:03 10° S
Meteor 1-21 Rocket 4.4 20:08:14 10° N 20:13:36 47° ENE 20:18:54 10° SSE
ATLAS 5 CENTAUR R/B 1.7 20:09:31 10° SSW 20:14:14 71° ESE 20:19:22 10° NE
Cosmos 1076 Rocket 3.4 20:11:15 10° N 20:15:35 82° E 20:19:56 10° S
Atlas Centaur 2 4.4 20:08:55 10° WSW 20:16:01 30° SSW 20:22:47 10° SE
SeaSat 1 3.6 20:13:52 10° ENE 20:17:27 20° ESE 20:21:01 10° SSE
Cosmos 1766 4.1 20:17:38 10° SSW 20:21:30 53° W 20:25:26 10° N
Cosmos-2242 3.1 20:17:15 10° S 20:21:30 56° E 20:25:49 10° NNE
CZ-4B DEB 3.4 20:23:55 27° ESE 20:25:00 35° ENE 20:28:01 10° N
Cosmos 1452 Rocket 3.4 20:21:26 10° NNW 20:26:43 81° ENE 20:31:58 10° SSE
SL-16 R/B 3.1 20:25:03 10° SW 20:30:34 52° WNW 20:36:08 10° NNE
FREGAT/IRIS 4.0 20:27:59 10° S 20:30:56 41° W 20:33:54 10° NNW
NOSS 3-2 (A) 4.0 20:24:56 10° SW 20:30:57 63° NW 20:37:35 10° NNE
ATLAS CENTAUR R/B 4.0 20:30:38 10° WNW 20:33:26 18° WSW 20:36:05 10° SSW
CZ-2D R/B 3.7 20:33:52 29° ESE 20:35:20 42° ENE 20:39:02 10° N
Cosmos 1842 Rocket 3.9 20:32:44 10° SSE 20:36:44 38° E 20:40:46 10° NNE
Cosmos 1500 Rocket 4.0 20:33:46 10° N 20:37:58 40° ENE 20:39:25 30° ESE
Cosmos 1408 Rocket 4.0 20:33:43 10° NNW 20:38:02 63° W 20:42:18 10° S
SL-8 R/B 3.9 20:35:37 10° SW 20:40:14 50° SE 20:42:04 32° E
TELKOM 3 4.4 20:39:28 10° NW 20:41:31 29° N 20:41:31 29° N
Cosmos 1544 3.0 20:38:12 10° S 20:41:56 75° E 20:45:41 10° N
Cosmos 468 4.4 20:38:08 10° SSW 20:43:23 82° ESE 20:48:38 10° NNE
Gbstr 26 Del rocket 4.0 20:41:54 10° SSW 20:45:51 31° SE 20:45:51 31° SE
Cosmos 1953 2.8 20:43:07 10° SSW 20:47:04 60° W 20:51:01 10° N
Cosmos 1420 Rocket 3.9 20:43:32 10° NNW 20:48:51 71° ENE 20:52:00 25° SSE
H-2A R/B 2.7 20:50:09 41° SE 20:51:18 66° ENE 20:55:11 10° N
Cosmos 1805 4.1 20:48:00 10° SSW 20:51:51 53° W 20:55:43 10° N
FENGYUN 3A 3.5 20:47:51 10° SSE 20:53:13 83° ENE 20:58:39 10° NNW
Resurs 1-3 4.1 20:50:33 10° S 20:54:52 60° W 20:59:14 10° NNW
Resurs 01 Rocket 2.7 20:51:32 10° S 20:55:47 45° W 21:00:05 10° NNW
ASTEX 1 3.2 20:53:22 10° N 20:58:18 80° E 21:03:11 10° S
Cosmos 1346 3.7 20:58:15 10° NNW 21:01:10 52° W 21:01:22 50° WSW
Abrixas 3.8 20:58:12 10° SW 21:00:02 33° SW 21:00:02 33° SW
CENTAUR R/B 2.5 20:59:23 10° SSW 21:05:11 53° ESE 21:11:40 10° NE
Cosmos 1269 Rocket 4.0 21:00:34 10° SSW 21:05:50 82° WNW 21:11:10 10° NNE
Cosmos 1743 Rocket 3.8 21:02:02 10° NNW 21:06:28 67° W 21:09:33 19° S
Helios 1A 4.5 21:02:50 10° SSW 21:06:41 36° W 21:10:34 10° NNW
Cosmos 1048 Rocket 3.9 21:02:25 10° SSW 21:07:44 88° ESE 21:13:00 10° NNE
Cosmos 2369 Rocket 2.2 21:08:00 10° NNW 21:13:36 57° ENE 21:14:17 53° E
Cosmos 1943 3.1 21:08:11 10° S 21:13:42 60° ESE 21:19:14 10° NNE
Cosmos 1470 2.8 21:13:51 66° SW 21:14:17 77° W 21:18:11 10° N
Envisat 3.8 21:16:18 34° NE 21:16:18 34° NE 21:19:58 10° N
Cosmos 1943 Rocket 3.3 21:12:31 10° N 21:16:39 27° NE 21:16:39 27° NE
Cosmos 1603 4.3 21:12:16 10° SW 21:17:53 56° WNW 21:23:34 10° NNE
GP-B 3.1 21:19:31 10° N 21:23:33 73° N 21:23:33 73° N
Cosmos 1655 Rocket 4.0 21:20:15 10° N 21:26:24 57° E 21:26:29 57° E
Cosmos 1092 Rocket 4.1 21:21:58 10° NNW 21:28:10 71° W 21:32:27 21° S
Cosmos 2142 Rocket 4.4 21:26:50 10° S 21:33:12 90° NW 21:39:38 10° N
ISS -0.3 21:33:03 10° WSW 21:33:16 12° WSW 21:33:16 12° WSW
Cosmos 1674 4.1 21:32:47 10° NNW 21:36:22 36° W 21:36:37 36° W
USA 215 4.0 21:33:39 10° NE 21:39:54 49° NNW 21:46:08 10° WSW
Cosmos 2026 Rocket 3.8 21:36:32 10° N 21:42:40 84° E 21:42:57 80° SE
Cosmos 1634 Rocket 4.1 21:36:36 10° SSW 21:42:49 72° W 21:49:03 10° N
H-2A R/B 4.4 21:48:55 16° N 21:48:55 16° N 21:49:55 10° N
ALOS 4.2 21:42:33 11° SSW 21:46:15 26° W 21:50:12 10° NW
Meteor 1-11 4.2 21:42:19 10° N 21:47:39 76° N 21:47:39 76° N
ERS-1 Rocket 3.6 21:55:08 50° NNW 21:55:08 50° NNW 21:58:51 10° NNW
SeaSat 1 3.1 21:50:24 10° NNE 21:55:13 54° WNW 22:00:00 10° SW
ATLAS 5 CENTAUR R/B 4.3 21:55:53 10° W 21:59:32 20° NW 22:03:25 10° N
CENTAUR R/B 4.0 22:50:33 10° WSW 22:56:09 33° NW 23:02:24 10° NNE
Cosmos 2369 Rocket 4.4 22:53:10 10° NW 22:56:06 19° W 22:56:06 19° W
Cosmos 1943 Rocket 4.2 22:55:56 10° NW 22:58:11 23° NW 22:58:11 23° NW
